Find Starlink 3882

NORAD ID: 52475 Int'l Des: 2022-049 Owner: SPXS Country: US Constellation: starlink operational
LEOCIRCULAR

リアルタイム位置

3D地球を読み込み中...

Starlink 3882について

説明を読み込み中...

次回通過

Passes for default location (London). Set your location on the main map for personalized predictions.

高度履歴

Loading altitude history...

軌道要素

1 52475U 22049AA 26119.93116410 -.00000120 00000-0 10514-4 0 9993
2 52475 53.2163 189.3105 0001037 96.6630 263.4480 15.08842310219981
Epoch: Apr 29, 2026 • Age: 6 hours

現在のステータス

高度 558.8 km
速度 7.58 km/s
衛星直下点 -52.76°S, 173.1°W
打ち上げ日 May 6, 2022
運用期間 3.9 years
タイプ internet

技術仕様

分類 Payload
質量 297.00 kg
乾燥質量 220.00 kg
総質量 297.00 kg
長さ 0.20 m
直径 2.80 m
スパン 9.00 m
形状 Box + pan
製造者 SPXS
バスタイプ Starlink
フェーズステータス In Orbit
所有者/国 SPXS/US

Most Searched